Location: Rancho Del Sol Observatory
(38.7214°N, 120.6350°W)
Time: 16:00:52
(UTC-08:00)

Starlink Launch 2 leader - Visible Passes

Search period start: 12 December 2019 00:00
Search period end: 22 December 2019 00:00
Orbit: 279 x 281 km, 53.0° (Epoch: 13 November)

Date Brightness Start Highest point End Pass type
(mag) Time Alt. Az. Time Alt. Az. Time Alt. Az.
19 Dec 4.1 18:09:38 10° SSW 18:11:04 22° SSE 18:11:04 22° SSE visible
20 Dec 2.5 18:11:09 10° SW 18:13:21 57° S 18:13:21 57° S visible
21 Dec 2.8 18:13:06 10° WSW 18:15:30 50° NW 18:15:33 50° NNW visible
